Concordia, KS

2:46 PM CST on February 06, 2016 (GMT -0600)
Blosser Municipal

Weather History for KCNK - December, 2012

Change the Weather History Date:

Thursday, December 6, 2012

  Actual Average Record
Temperature  
Mean Temperature 44 °F 32 °F  
Max Temperature 51 °F 42 °F 76 °F (1939)
Min Temperature 37 °F 22 °F -4 °F (1950)
Degree Days  
Heating Degree Days 21 33  
Month to date heating degree days 107 193  
Since 1 July heating degree days 1137 1285  
Cooling Degree Days 0 0  
Month to date cooling degree days 0 0  
Year to date cooling degree days 1643 1349  
Moisture  
Dew Point 28 °F    
Average Humidity 54    
Maximum Humidity 70    
Minimum Humidity 38    
Precipitation  
Precipitation T in 0.03 in 0.98 in (1994)
Month to date precipitation T 0.20  
Year to date precipitation 23.08 27.24  
Snow  
Snow 0.00 in 0.10 in 2.00 in (2009)
Month to date snowfall 0.0 0.7  
Year to date snowfall 5.8 17.1  
Since 1 July snowfall 0.0 3.4  
Snow Depth 0.00 in    
Sea Level Pressure  
Sea Level Pressure 29.91 in    
Wind  
Wind Speed 9 mph (NE)    
Max Wind Speed 23 mph    
Max Gust Speed 30 mph    
Visibility 10 miles    
Events      
T = Trace of Precipitation, MM = Missing Value Source: NWS Daily Summary

Daily Weather History Graph

Daily Weather History Graph

Search for Another Location

Airport or City:

Trip Planner

Search our weather history database for the weather conditions in past years. The results will help you decide how hot, cold, wet, or windy it might be!

Date:

Astronomy

Dec. 06, 2012 Rise Set
Actual Time 7:37 AM CST 5:06 PM CST
Civil Twilight 7:07 AM CST 5:36 PM CST
Nautical Twilight 6:33 AM CST 6:10 PM CST
Astronomical Twilight 6:00 AM CST 6:42 PM CST
Moon No Moon Rise 12:31 PM CST
Length of Visible Light 10h 29m
Length of Day
9h 29m
Waning Gibbous, 49% of the Moon is Illuminated
Dec 6
Waning Gibbous
Dec 13
New
Dec 19
First Quarter
Dec 28
Full
Jan 4
Last Quarter

Hourly Weather History & Observations

Time (CST) Temp. Windchill Dew Point Humidity Pressure Visibility Wind Dir Wind Speed Gust Speed Precip Events Conditions
12:55 AM 46.0 °F 39.9 °F 23.0 °F 40% 29.89 in 10.0 mi South 13.8 mph - N/A   Clear
1:55 AM 46.0 °F 39.0 °F 24.1 °F 42% 29.87 in 10.0 mi South 17.3 mph 23.0 mph N/A   Clear
2:55 AM 44.1 °F 39.5 °F 26.1 °F 49% 29.87 in 10.0 mi South 8.1 mph - N/A   Clear
3:55 AM 46.0 °F 39.9 °F 28.0 °F 50% 29.85 in 10.0 mi South 13.8 mph 23.0 mph N/A   Clear
4:55 AM 45.0 °F 40.1 °F 30.0 °F 56% 29.85 in 10.0 mi SSW 9.2 mph - N/A   Clear
5:55 AM 45.0 °F 38.2 °F 30.9 °F 58% 29.83 in 10.0 mi South 15.0 mph - N/A   Clear
6:55 AM 44.1 °F - 32.0 °F 63% 29.87 in 10.0 mi Calm Calm - N/A   Clear
7:55 AM 41.0 °F - 32.0 °F 70% 29.88 in 10.0 mi Calm Calm - N/A   Clear
8:55 AM 42.1 °F - 33.1 °F 70% 29.89 in 10.0 mi Calm Calm - N/A   Partly Cloudy
9:55 AM 45.0 °F - 34.0 °F 65% 29.90 in 10.0 mi Calm Calm - N/A   Clear
10:55 AM 46.9 °F - 36.0 °F 66% 29.92 in 10.0 mi WNW 6.9 mph - N/A   Partly Cloudy
11:55 AM 48.0 °F - 32.0 °F 54% 29.90 in 10.0 mi North 10.4 mph - N/A   Scattered Clouds
12:55 PM 50.0 °F - 28.0 °F 43% 29.87 in 10.0 mi NNE 12.7 mph - N/A   Clear
1:55 PM 48.9 °F - 30.0 °F 48% 29.88 in 10.0 mi NNE 16.1 mph 20.7 mph N/A   Mostly Cloudy
2:55 PM 50.0 °F - 30.9 °F 48% 29.90 in 10.0 mi NNE 15.0 mph - N/A   Overcast
3:55 PM 48.9 °F - 28.0 °F 44% 29.88 in 10.0 mi NNE 19.6 mph 29.9 mph 0.00 in   Overcast
4:55 PM 48.0 °F - 24.1 °F 39% 29.94 in 10.0 mi NNE 8.1 mph - N/A   Partly Cloudy
5:55 PM 45.0 °F 41.2 °F 23.0 °F 42% 29.96 in 10.0 mi NE 6.9 mph - N/A   Clear
6:55 PM 45.0 °F 41.2 °F 24.1 °F 44% 29.97 in 10.0 mi NE 6.9 mph - N/A   Overcast
7:55 PM 45.0 °F 41.8 °F 25.0 °F 46% 29.98 in 10.0 mi NE 5.8 mph - N/A   Overcast
8:55 PM 44.1 °F 40.1 °F 26.1 °F 49% 29.98 in 10.0 mi ENE 6.9 mph - N/A   Overcast
9:55 PM 41.0 °F 36.4 °F 26.1 °F 55% 29.99 in 10.0 mi NNE 6.9 mph - N/A   Mostly Cloudy
10:55 PM 39.0 °F 34.8 °F 26.1 °F 60% 29.98 in 10.0 mi North 5.8 mph - N/A   Clear
11:55 PM 37.9 °F 32.7 °F 26.1 °F 62% 29.98 in 10.0 mi North 6.9 mph - N/A   Clear